Wind_Speed
7 10 13 15 17 18 18 18 16 16 17 18 19 20 20 21 21 21 22 23 24 26 27 28 28 27 26 24 23 22 22 22 23 22 23 23 24 27 28 27 28 28 27 28 28 25 22 21 21 21 21 21 24 27 30 31 30 30 30 30 29 27 25
10 12 14 15 16 18 18 17 16 16 17 17 18 19 20 20 20 21 22 23 25 26 27 28 28 28 27 26 25 24 22 21 21 22 23 24 23 23 26 27 28 28 27 28 27 25 25 25 24 25 26 25 25 26 28 30 30 30 30 31 30 29 27
13 13 14 15 17 18 18 17 17 17 17 17 18 19 19 19 20 21 22 23 25 25 26 26 27 27 26 26 25 23 21 20 21 22 23 25 24 23 24 24 26 27 27 29 28 26 25 25 26 29 30 28 28 28 27 28 29 30 30 31 31 31 30
14 14 14 16 18 18 17 17 17 18 18 18 18 18 18 18 19 20 22 23 23 24 24 25 26 26 25 24 23 21 19 19 21 23 23 23 23 24 24 23 24 26 27 30 30 27 26 26 28 30 31 30 30 30 28 26 27 29 30 31 33 34 32
15 15 16 18 20 19 18 19 19 19 18 17 17 16 16 17 18 19 20 21 22 23 24 25 26 25 23 21 20 19 18 18 19 21 22 21 20 21 23 24 25 26 28 30 28 26 27 28 29 32 34 32 31 31 31 29 27 27 30 33 35 35 34
16 16 18 20 21 20 20 21 21 20 18 16 15 15 16 17 18 19 20 21 21 22 23 24 24 23 21 20 19 19 18 17 17 18 18 19 19 20 22 22 23 24 26 28 27 26 27 29 32 35 35 32 31 32 32 30 28 27 29 33 34 34 35
17 18 19 20 20 20 20 20 20 19 17 15 15 16 17 17 17 18 19 20 20 21 22 22 22 22 21 20 18 18 18 17 17 17 17 17 17 19 20 20 21 21 22 23 23 23 23 26 30 33 32 31 31 31 30 28 27 28 29 30 32 34 34
17 18 18 18 18 18 18 17 17 16 15 14 15 16 16 17 17 18 18 18 19 19 20 20 21 21 22 21 19 17 18 18 16 16 16 16 17 17 18 19 20 21 21 20 20 20 21 23 27 28 30 32 29 25 26 27 27 27 28 27 29 31 33
16 16 16 15 15 16 16 15 15 14 13 13 15 15 15 16 16 17 17 17 18 18 18 19 19 20 20 20 19 17 17 18 17 15 15 15 16 17 18 19 20 20 20 20 20 20 21 22 25 27 30 32 29 24 24 26 28 28 27 27 27 29 31
13 13 13 13 13 14 15 15 12 12 12 12 14 15 14 14 15 16 17 16 17 18 18 18 18 18 19 18 17 16 17 17 17 17 16 15 15 17 18 17 17 19 20 20 19 19 20 20 23 27 30 31 30 27 25 25 28 29 28 28 28 27 29
12 11 11 11 11 12 13 11 9 10 12 12 13 13 13 14 15 16 16 16 17 18 17 17 17 18 18 18 17 16 17 18 17 17 16 16 16 16 17 15 13 14 15 17 17 17 19 19 20 24 27 28 29 30 29 27 27 29 29 29 29 27 26
10 10 11 10 9 10 10 9 7 9 11 11 12 12 13 14 15 15 16 16 17 17 17 17 17 17 17 17 18 17 17 18 17 16 16 16 16 16 16 15 13 12 12 12 14 15 16 17 17 21 25 27 28 29 30 31 30 30 30 29 29 26 24
10 10 9 8 8 9 8 7 7 9 11 11 11 11 13 14 14 15 16 16 17 17 18 18 17 16 16 17 18 17 17 17 17 16 16 16 17 17 17 16 14 14 14 14 15 15 16 17 17 20 23 28 31 30 29 30 32 32 30 30 29 26 24
9 8 6 6 7 7 6 7 7 8 10 9 10 11 12 13 14 15 16 17 19 19 18 18 17 17 17 17 17 17 16 17 16 16 15 16 17 19 18 16 15 14 14 15 16 15 15 17 18 21 23 25 28 29 28 28 30 30 30 29 27 25 24
5 5 4 5 5 4 5 6 6 8 9 9 10 11 12 13 14 15 16 18 19 19 19 18 18 18 18 18 18 18 18 17 17 16 16 17 18 19 19 17 16 16 15 16 16 14 12 12 12 15 20 22 22 23 25 25 25 28 29 26 23 21 21
3 3 2 2 2 3 5 6 7 9 10 10 11 12 13 15 15 15 15 17 18 18 19 18 19 19 19 19 20 19 19 18 18 17 17 18 18 18 18 18 18 17 16 17 17 13 11 10 9 8 10 14 16 18 22 21 20 22 24 22 20 19 20
1 1 1 1 2 4 6 7 8 10 12 11 12 12 13 14 14 15 15 16 17 17 18 18 19 19 19 19 20 20 20 19 19 19 19 19 19 19 19 19 18 17 15 16 16 13 10 11 11 10 9 9 10 13 16 15 13 16 19 20 18 17 22
3 2 2 2 4 5 8 10 11 12 12 13 13 13 13 13 13 14 15 16 16 16 17 19 20 20 20 21 21 20 21 21 21 21 20 20 20 20 20 19 18 18 16 16 16 14 12 11 11 11 9 7 7 8 11 12 13 16 19 20 17 15 19
4 3 3 4 6 9 12 13 12 12 12 13 13 12 12 13 13 13 14 14 15 15 17 18 20 21 22 21 21 21 22 22 22 22 22 22 21 21 21 21 20 20 19 18 17 16 14 12 10 9 8 7 7 8 11 13 14 14 16 17 16 17 18
5 6 7 10 12 14 14 12 11 11 11 11 11 12 12 12 12 12 12 13 13 14 14 15 18 20 20 20 20 20 21 21 21 21 22 22 22 22 22 23 23 23 23 22 20 18 16 14 12 10 9 8 9 10 11 11 10 12 14 15 16 19 21
8 11 13 14 15 14 12 11 11 11 10 10 11 11 11 11 11 11 12 12 11 11 12 13 16 19 20 20 20 20 20 19 18 19 21 22 22 23 23 23 24 24 24 24 24 22 19 17 15 14 11 9 8 9 10 11 10 9 11 14 16 19 20
13 14 15 15 14 12 11 11 10 10 10 11 11 11 10 10 10 10 10 10 10 10 11 13 17 18 19 19 20 21 20 19 18 18 19 21 23 23 23 24 25 25 25 25 24 24 23 21 18 16 15 13 11 10 9 10 11 11 11 12 16 18 18
15 15 14 13 12 11 10 10 10 10 10 11 11 11 10 10 10 11 11 11 11 11 14 17 19 19 19 19 20 20 20 20 20 19 20 21 23 24 24 25 25 26 27 27 26 26 26 26 25 22 20 18 16 14 12 11 10 10 11 12 14 15 16
14 14 13 12 11 11 10 10 10 10 10 10 11 11 11 11 12 13 14 14 15 16 19 20 20 20 20 20 20 20 20 21 21 21 22 23 24 24 24 25 26 27 28 29 29 28 28 29 29 28 25 22 19 18 16 14 12 11 10 11 12 14 14
13 13 12 11 11 10 10 9 9 9 9 10 10 10 11 12 13 14 15 15 17 19 21 20 20 20 20 20 19 19 19 19 19 20 21 22 22 22 23 24 24 25 27 27 28 29 28 28 28 28 27 26 24 22 20 17 15 14 12 11 11 12 13
13 12 11 11 11 10 9 9 9 9 9 9 9 9 11 12 13 13 14 15 16 18 19 20 19 19 19 19 19 18 18 18 18 18 19 19 19 19 21 22 22 23 24 24 26 27 26 25 25 25 25 25 25 24 22 20 18 16 14 13 12 12 12
12 12 12 12 11 10 10 10 10 10 9 9 9 10 11 12 12 13 14 15 15 17 19 20 19 19 19 19 19 19 19 18 19 19 19 20 20 20 21 22 23 24 24 24 25 26 25 24 23 23 23 23 24 23 23 23 23 23 22 19 17 15 15
12 12 12 11 10 10 10 10 11 10 9 9 10 11 12 12 13 14 15 15 15 17 19 19 19 19 19 19 19 19 20 20 20 21 21 21 22 22 23 23 25 26 26 26 26 25 23 22 21 21 23 23 23 23 24 25 26 26 27 26 25 22 20
12 12 11 10 9 10 10 10 10 10 9 10 11 11 12 13 14 15 15 15 16 18 20 19 19 19 19 18 18 19 19 20 20 21 22 23 23 23 23 24 24 24 24 26 26 25 24 21 18 19 21 22 23 23 24 25 24 24 24 25 25 25 24
11 10 9 8 9 10 10 10 11 10 9 10 11 12 13 15 16 17 17 18 19 20 22 22 21 21 20 20 19 20 20 20 21 22 23 24 24 25 26 26 25 23 23 23 24 23 23 21 19 19 20 21 20 21 22 22 21 21 22 21 21 22 22
10 10 10 10 10 11 11 11 12 11 10 11 13 15 15 17 18 19 19 20 20 21 21 22 21 21 22 22 22 22 22 22 23 24 25 25 26 27 28 29 28 27 26 25 23 22 22 21 20 20 21 21 20 21 23 22 20 20 20 20 21 22 22
10 11 11 12 13 13 13 13 13 12 12 13 15 16 16 17 18 19 19 19 19 19 20 21 21 21 21 21 22 22 22 23 25 25 25 26 27 28 29 30 30 30 29 27 26 24 23 23 22 21 21 21 22 23 24 23 22 23 23 23 23 23 23
12 12 13 14 14 14 14 14 13 12 13 14 15 15 15 15 17 18 18 18 19 20 20 21 21 21 21 21 21 21 22 24 25 24 24 26 26 28 28 29 29 29 28 27 27 27 26 25 24 23 22 23 23 22 21 21 22 22 23 23 23 23 23
13 14 14 14 15 15 14 13 12 13 13 13 14 14 15 15 15 17 18 18 19 21 21 21 21 21 21 21 21 21 23 24 24 23 24 25 26 27 27 27 27 26 25 25 26 26 27 27 26 26 25 23 20 18 17 18 18 19 20 21 22 22 22
14 15 14 13 13 14 13 12 12 12 12 12 13 14 15 15 16 17 19 20 21 22 22 22 22 22 22 23 23 24 25 25 25 24 25 26 26 26 25 24 24 23 22 23 24 24 25 25 26 27 26 23 20 18 17 17 17 18 19 20 21 22 23
14 14 13 12 12 13 13 12 12 12 11 11 12 14 16 16 17 19 21 22 23 24 24 24 24 24 25 25 26 26 26 27 26 26 27 27 25 24 23 22 21 20 20 21 22 23 24 24 25 26 26 25 24 23 23 22 21 21 21 22 24 25 27
14 13 12 11 11 12 12 11 12 12 11 11 13 15 17 17 18 20 22 23 24 24 25 25 25 25 25 25 26 26 26 27 26 26 26 26 24 22 21 20 20 19 20 20 21 22 23 25 25 25 25 25 26 26 27 28 28 28 28 30 31 30 29
Wind_Direction
317 322 321 319 314 310 307 309 316 316 315 315 315 314 313 312 312 313 313 313 314 315 314 312 311 311 310 308 305 301 295 288 279 276 283 285 280 278 276 274 274 272 270 270 268 262 256 259 261 257 256 256 249 245 241 242 243 239 237 236 233 232 231
318 323 319 314 308 306 308 313 317 315 314 315 316 314 312 311 312 312 313 314 315 314 313 312 312 313 312 310 308 307 303 295 284 274 273 276 276 278 278 276 276 276 275 276 274 266 255 252 257 258 260 258 251 247 243 240 242 240 238 236 234 232 231
316 318 312 307 304 305 309 312 312 313 314 318 319 316 312 311 312 313 314 315 315 315 315 317 318 318 316 312 309 309 307 303 298 288 276 272 272 273 275 278 280 275 273 274 272 269 264 257 257 260 260 256 251 252 249 243 241 241 238 235 233 231 230
313 312 306 303 302 303 307 310 311 314 318 321 319 315 311 310 311 313 314 315 316 318 321 324 325 323 320 315 312 312 310 307 304 298 288 280 273 272 274 275 276 271 270 272 268 265 267 264 260 259 258 257 255 255 253 249 246 243 239 234 231 230 228
312 308 305 301 301 305 310 313 316 319 321 321 317 314 312 312 314 315 316 319 322 324 328 329 330 329 326 320 316 314 311 309 307 301 295 290 280 274 274 272 269 266 266 271 271 266 265 267 265 262 260 258 255 253 253 251 248 246 242 235 231 229 227
310 306 303 301 304 310 314 315 317 320 321 322 320 318 319 319 319 320 322 325 327 330 334 336 339 340 338 331 324 320 314 308 308 306 299 296 289 279 276 276 273 269 266 267 271 268 264 268 267 263 263 260 254 254 253 250 248 247 245 240 235 230 228
305 301 299 300 305 308 310 312 314 316 318 321 324 323 323 324 324 326 328 329 331 335 338 342 346 349 347 343 336 332 330 320 309 304 301 299 295 287 284 285 283 279 274 271 271 268 264 264 262 262 264 259 252 252 250 248 249 247 245 243 239 233 230
298 295 296 300 304 304 306 310 311 311 313 318 323 324 324 326 328 330 330 332 336 340 342 345 348 350 352 352 349 346 346 340 323 308 304 302 301 297 294 293 290 286 284 281 280 277 272 267 265 267 264 252 242 240 242 244 247 247 246 246 243 238 232
293 293 297 301 301 302 305 309 310 308 311 318 320 322 326 330 332 333 334 339 343 345 347 348 350 352 354 356 356 355 355 353 346 336 325 316 311 308 303 295 289 286 283 282 282 283 283 278 272 269 262 249 238 232 233 239 243 246 246 245 244 241 235
290 293 296 295 295 295 299 308 312 308 311 316 317 323 331 334 337 338 339 346 351 352 352 353 355 357 355 356 358 357 356 358 359 357 353 343 333 328 323 312 299 292 287 285 285 285 286 283 275 269 262 253 246 238 232 234 240 243 244 243 243 239 234
286 288 288 290 292 295 303 316 319 311 314 316 318 327 334 337 342 344 346 354 358 358 359 360 2 2 360 359 0 359 356 355 355 358 0 356 348 344 344 342 330 314 302 293 291 288 287 287 282 274 266 256 249 242 237 236 241 246 246 245 243 237 232
279 280 280 284 296 310 325 335 327 316 319 323 325 331 336 342 349 352 355 2 5 6 8 8 9 10 9 7 6 5 3 0 358 358 0 358 352 349 350 355 354 342 330 317 309 304 299 295 285 274 268 261 252 243 239 238 242 247 249 247 243 235 228
269 273 274 285 309 329 338 339 334 328 328 332 335 338 345 353 0 5 10 15 16 15 15 13 13 14 14 12 10 10 9 8 7 3 0 357 352 349 346 350 355 351 346 341 336 328 316 309 295 275 266 261 254 246 240 239 242 246 249 250 244 230 222
261 269 279 304 327 339 340 340 345 339 335 343 348 351 360 9 16 22 26 25 23 20 18 16 16 16 16 12 9 9 11 12 10 6 3 0 357 354 349 345 348 350 346 341 341 339 329 320 305 285 271 261 254 249 244 242 244 247 250 248 236 221 221
256 276 297 314 328 342 346 352 358 349 351 5 10 11 18 23 28 32 31 27 24 23 21 21 20 19 17 12 8 9 12 11 8 4 3 2 0 2 359 351 347 348 345 339 336 336 337 333 317 297 281 265 253 250 248 247 249 252 250 240 224 218 226
263 286 296 313 349 10 10 11 11 11 20 28 27 26 30 32 33 33 31 29 28 27 26 25 24 21 18 15 14 15 16 14 10 5 3 2 2 2 3 1 357 354 350 346 341 338 341 342 338 331 306 281 270 262 256 254 255 257 256 248 236 228 232
218 193 157 81 42 30 27 31 33 35 40 41 38 36 36 38 38 35 34 34 31 30 31 30 28 24 20 18 17 18 19 18 18 15 12 8 6 4 4 5 5 1 355 352 351 348 346 342 338 342 333 317 310 284 263 256 257 263 269 273 269 250 238
156 138 109 62 48 50 55 58 57 54 50 47 45 41 38 42 42 37 37 38 38 39 39 36 32 30 28 26 25 24 24 26 28 28 24 18 14 10 9 9 8 4 358 355 355 352 345 335 332 338 334 326 322 292 270 269 271 272 272 273 278 270 254
141 120 100 81 76 75 74 73 68 60 53 48 45 40 39 43 44 43 45 45 45 44 43 39 34 32 32 31 32 31 30 31 33 32 30 27 23 19 15 13 12 10 6 2 358 357 355 348 334 331 327 318 312 298 283 275 266 260 260 260 259 261 270
124 106 97 92 88 85 81 75 67 59 52 46 43 41 42 43 43 44 44 42 40 40 40 39 36 32 29 27 26 26 26 28 30 30 30 29 27 26 23 19 18 17 15 11 5 358 357 357 352 343 328 310 306 307 304 296 270 238 236 248 249 251 265
110 102 97 93 90 87 81 72 65 58 50 45 46 44 41 39 35 32 30 26 27 29 29 33 34 31 27 23 20 18 18 19 21 24 27 30 30 30 29 27 27 26 24 21 18 11 5 360 356 352 343 329 317 312 310 312 306 275 247 244 246 252 262
105 101 97 94 92 86 79 72 64 57 51 48 46 41 36 31 25 22 21 17 19 21 23 29 32 28 24 22 19 15 16 19 21 24 28 32 33 32 33 36 37 37 34 31 28 25 21 15 7 359 354 350 345 333 319 312 313 309 293 272 262 264 270
104 101 97 95 91 84 77 70 63 58 54 50 46 42 36 30 26 24 23 22 23 26 31 35 33 27 25 25 23 22 23 23 25 28 30 33 35 36 40 44 45 45 43 39 35 34 32 28 23 17 11 6 0 353 343 332 322 314 310 303 292 283 279
104 101 98 94 89 81 74 67 61 58 55 52 49 46 41 37 35 34 32 32 33 37 40 39 33 29 28 27 25 25 25 24 25 28 31 34 37 40 42 42 42 44 43 40 36 35 35 34 31 27 24 21 16 8 360 351 343 335 328 327 320 307 298
106 103 98 92 84 76 69 63 60 57 57 56 53 49 47 45 45 44 43 41 42 46 46 41 35 31 29 27 25 25 25 24 25 28 32 36 37 37 35 33 33 36 38 37 34 32 32 35 36 34 32 31 29 24 16 6 359 355 348 342 336 323 314
109 103 95 87 80 76 70 65 62 59 59 61 58 55 55 53 52 52 50 48 49 52 49 41 34 29 27 26 25 25 28 29 30 32 35 37 34 30 26 24 26 29 30 31 31 29 27 29 32 34 35 35 35 34 31 25 19 17 10 360 354 348 340
106 99 93 87 83 79 74 70 68 68 68 68 65 62 60 57 55 52 50 49 49 50 48 42 34 28 26 25 24 25 29 32 35 36 36 35 33 31 27 25 26 27 26 26 25 23 21 21 22 25 29 33 34 35 37 36 33 29 25 20 14 7 357
104 99 94 90 86 82 79 79 79 78 77 72 67 63 60 56 54 52 51 48 47 49 49 43 36 31 28 26 26 26 28 31 33 35 35 33 32 33 32 30 27 26 25 24 20 15 15 16 17 21 27 29 29 31 36 38 35 30 27 25 22 18 10
107 102 98 94 90 88 88 88 86 81 75 71 66 63 61 59 58 57 56 53 53 55 54 48 42 38 34 30 29 28 29 32 34 36 37 35 34 34 33 31 29 26 24 24 21 17 15 14 16 25 31 32 32 35 38 39 38 34 31 28 25 22 19
111 105 102 100 96 96 93 90 86 81 76 73 71 68 67 68 67 66 66 64 63 63 61 56 52 49 45 42 40 38 37 38 41 43 43 42 41 40 38 35 32 29 26 24 22 21 19 16 17 24 28 30 34 38 39 37 35 35 32 27 22 18 15
113 110 109 105 100 98 95 91 89 86 81 79 78 77 76 76 74 71 69 67 65 64 62 59 54 52 50 48 47 47 46 46 47 48 48 47 46 44 43 41 38 35 32 28 24 22 22 21 23 25 25 24 28 33 32 27 23 21 16 11 11 11 10
116 113 111 105 100 98 96 93 92 89 86 84 83 83 80 77 75 71 68 65 63 60 58 56 51 48 48 46 46 47 47 47 47 47 47 46 46 45 44 43 41 39 36 33 29 26 24 23 25 27 27 25 27 29 24 15 11 9 4 3 6 7 8
117 114 110 106 103 100 96 95 94 92 89 88 87 85 80 76 74 71 66 63 60 57 54 52 49 46 45 44 43 44 45 46 45 43 44 43 42 42 41 41 42 40 38 36 34 33 31 29 28 28 26 27 29 27 18 11 9 8 6 7 9 7 9
118 113 109 106 105 102 98 97 95 92 91 89 87 84 79 75 73 70 66 61 58 56 54 52 50 48 46 45 45 44 46 47 45 43 43 42 40 40 39 38 39 38 35 34 34 34 35 35 34 34 33 31 30 23 14 11 11 9 8 8 6 6 10
118 113 110 109 107 103 102 100 96 93 92 89 86 82 79 76 73 71 68 64 61 59 57 55 53 52 50 49 48 48 48 48 45 42 43 42 40 39 37 37 37 34 30 31 31 32 34 36 38 40 40 38 35 29 22 19 16 13 14 14 12 15 19
119 116 114 112 107 103 104 103 98 95 92 88 86 83 80 77 75 73 70 67 64 61 58 56 54 52 51 49 48 47 46 45 42 40 41 42 41 39 37 37 36 32 28 28 29 31 33 35 38 40 40 39 39 37 35 33 30 29 30 29 26 25 25
123 121 117 114 109 106 106 105 101 99 95 90 87 85 82 79 76 74 72 68 65 62 59 56 54 52 50 48 47 47 45 43 41 39 40 42 41 41 40 39 37 35 32 32 34 36 37 37 38 38 38 39 39 39 39 39 39 39 39 36 33 30 27
Height
1539 1539 1539 1539 1539 1538 1539 1539 1539 1538 1537 1536 1535 1535 1534 1533 1532 1532 1531 1530 1528 1527 1526 1524 1523 1521 1520 1519 1517 1516 1515 1514 1514 1513 1512 1512 1511 1509 1509 1509 1509 1510 1510 1510 1510 1512 1512 1511 1511 1512 1513 1514 1514 1514 1515 1516 1517 1518 1520 1521 1522 1524 1525
1538 1538 1538 1538 1538 1538 1538 1538 1537 1537 1536 1535 1534 1533 1532 1532 1531 1530 1529 1528 1527 1526 1524 1522 1521 1519 1517 1515 1514 1512 1511 1510 1510 1509 1509 1508 1508 1507 1505 1505 1505 1506 1506 1506 1507 1509 1509 1509 1509 1509 1510 1511 1511 1511 1512 1513 1514 1515 1516 1517 1519 1521 1522
1537 1538 1538 1538 1537 1537 1536 1536 1536 1535 1535 1534 1533 1532 1532 1531 1530 1529 1528 1527 1525 1524 1522 1520 1518 1516 1514 1512 1510 1509 1508 1507 1506 1506 1505 1504 1504 1503 1502 1502 1502 1502 1503 1503 1504 1504 1505 1506 1505 1505 1506 1507 1507 1507 1508 1510 1511 1512 1513 1514 1516 1518 1519
1537 1537 1537 1537 1536 1536 1535 1535 1535 1534 1534 1533 1532 1531 1531 1530 1529 1528 1527 1525 1524 1522 1520 1518 1516 1513 1511 1509 1508 1507 1506 1505 1504 1503 1502 1501 1501 1500 1500 1500 1500 1500 1499 1499 1499 1501 1502 1502 1502 1501 1502 1503 1504 1504 1505 1507 1508 1509 1510 1511 1512 1514 1516
1536 1536 1536 1535 1535 1534 1534 1534 1533 1533 1532 1532 1531 1531 1530 1529 1528 1527 1525 1524 1522 1521 1519 1516 1514 1511 1509 1507 1506 1505 1504 1503 1502 1500 1499 1498 1498 1498 1497 1497 1497 1497 1497 1496 1496 1498 1498 1498 1498 1498 1498 1500 1500 1501 1502 1504 1505 1505 1506 1507 1509 1510 1512
1535 1535 1535 1534 1534 1533 1533 1532 1532 1531 1531 1531 1531 1530 1529 1528 1527 1525 1524 1523 1521 1519 1517 1515 1512 1510 1507 1506 1504 1503 1502 1501 1500 1498 1498 1497 1496 1496 1495 1494 1494 1494 1493 1493 1494 1495 1495 1495 1495 1494 1494 1496 1496 1497 1499 1500 1501 1502 1503 1504 1505 1507 1509
1535 1535 1534 1534 1533 1533 1532 1532 1531 1531 1531 1530 1530 1529 1528 1527 1526 1524 1523 1521 1520 1518 1516 1514 1512 1509 1507 1505 1503 1502 1500 1499 1498 1497 1496 1496 1495 1494 1493 1492 1491 1490 1490 1491 1491 1491 1491 1491 1491 1490 1492 1492 1492 1494 1495 1496 1497 1498 1498 1499 1501 1503 1505
1534 1534 1533 1533 1533 1532 1532 1532 1531 1531 1531 1530 1530 1529 1528 1526 1525 1524 1522 1521 1519 1517 1515 1513 1511 1509 1507 1504 1502 1501 1499 1498 1496 1495 1494 1494 1492 1491 1490 1489 1489 1488 1487 1487 1487 1487 1487 1488 1487 1488 1489 1489 1489 1490 1492 1493 1494 1494 1495 1496 1498 1499 1501
1533 1533 1533 1533 1532 1532 1532 1531 1531 1531 1530 1530 1529 1528 1527 1526 1525 1523 1521 1520 1518 1517 1515 1513 1511 1509 1506 1504 1502 1500 1498 1497 1495 1494 1493 1492 1490 1489 1488 1487 1486 1485 1485 1484 1484 1484 1484 1484 1484 1484 1485 1486 1486 1487 1489 1490 1490 1490 1491 1493 1494 1495 1497
1533 1533 1532 1532 1532 1532 1531 1531 1531 1530 1530 1529 1529 1528 1527 1526 1524 1522 1521 1519 1518 1516 1514 1512 1510 1508 1506 1504 1502 1500 1498 1496 1495 1494 1492 1491 1489 1488 1486 1485 1483 1482 1482 1481 1482 1482 1482 1482 1481 1481 1482 1483 1484 1485 1486 1487 1487 1487 1488 1489 1491 1492 1494
1532 1532 1532 1532 1533 1532 1531 1531 1531 1530 1529 1529 1528 1527 1526 1525 1524 1522 1520 1519 1517 1515 1514 1512 1510 1508 1506 1504 1502 1500 1498 1496 1495 1493 1492 1491 1489 1488 1486 1484 1482 1481 1480 1480 1479 1480 1479 1478 1478 1478 1479 1480 1481 1482 1483 1484 1484 1484 1486 1487 1488 1490 1491
1532 1532 1532 1532 1532 1532 1531 1531 1530 1529 1529 1528 1527 1527 1526 1525 1523 1522 1520 1518 1517 1515 1513 1512 1510 1508 1506 1504 1502 1500 1498 1496 1495 1493 1492 1490 1489 1488 1486 1484 1482 1481 1479 1478 1477 1477 1476 1476 1476 1475 1476 1476 1477 1478 1480 1482 1481 1481 1483 1484 1485 1487 1489
1532 1532 1532 1532 1532 1531 1531 1530 1530 1529 1528 1528 1527 1527 1526 1524 1523 1521 1520 1518 1517 1515 1513 1511 1510 1508 1506 1504 1502 1500 1498 1496 1494 1493 1492 1491 1489 1488 1486 1484 1482 1481 1479 1478 1477 1475 1474 1474 1473 1473 1473 1473 1474 1475 1477 1479 1479 1479 1480 1482 1483 1485 1487
1532 1532 1532 1532 1532 1531 1531 1530 1529 1529 1528 1528 1528 1527 1526 1524 1523 1521 1520 1518 1517 1515 1513 1512 1510 1508 1506 1505 1503 1500 1498 1497 1495 1493 1492 1491 1490 1487 1485 1484 1482 1480 1479 1478 1476 1475 1473 1472 1472 1471 1471 1471 1472 1473 1474 1476 1476 1477 1478 1479 1480 1482 1484
1532 1533 1533 1532 1532 1531 1531 1530 1529 1529 1528 1528 1527 1527 1526 1524 1523 1522 1520 1519 1517 1515 1513 1512 1510 1509 1507 1505 1503 1501 1499 1497 1495 1494 1492 1491 1490 1488 1486 1484 1482 1480 1479 1478 1476 1475 1473 1472 1471 1470 1469 1470 1470 1471 1472 1474 1474 1475 1476 1477 1477 1479 1482
1533 1533 1533 1533 1532 1531 1530 1530 1530 1529 1529 1528 1528 1527 1526 1525 1523 1522 1521 1519 1517 1516 1514 1513 1511 1509 1507 1505 1503 1501 1500 1498 1496 1495 1493 1491 1490 1488 1486 1484 1482 1481 1480 1478 1476 1474 1473 1472 1471 1470 1469 1469 1469 1470 1471 1472 1473 1474 1475 1475 1476 1477 1479
1533 1533 1533 1532 1532 1531 1531 1530 1530 1530 1529 1529 1528 1527 1526 1525 1524 1523 1521 1519 1518 1516 1515 1513 1511 1509 1507 1506 1504 1502 1500 1498 1497 1495 1494 1492 1490 1489 1487 1485 1483 1482 1480 1478 1476 1475 1473 1472 1471 1470 1469 1468 1469 1469 1470 1471 1471 1472 1473 1474 1474 1475 1477
1533 1533 1533 1532 1532 1531 1531 1531 1531 1531 1531 1530 1529 1528 1527 1526 1524 1523 1521 1519 1518 1517 1515 1514 1512 1510 1508 1506 1505 1503 1501 1499 1498 1496 1495 1493 1491 1489 1487 1486 1484 1482 1480 1479 1477 1475 1474 1473 1471 1470 1469 1468 1469 1469 1469 1470 1470 1471 1472 1472 1473 1474 1475
1533 1533 1533 1532 1532 1532 1532 1532 1532 1532 1531 1531 1530 1529 1527 1526 1525 1523 1522 1520 1519 1517 1516 1514 1513 1511 1509 1508 1506 1504 1503 1501 1499 1497 1496 1494 1492 1490 1488 1487 1485 1483 1481 1479 1477 1476 1475 1473 1472 1471 1470 1469 1469 1469 1469 1469 1469 1470 1471 1471 1472 1473 1474
1533 1533 1533 1532 1533 1533 1533 1533 1533 1532 1532 1531 1530 1529 1528 1526 1525 1524 1523 1521 1520 1518 1517 1515 1514 1512 1510 1509 1507 1506 1504 1502 1501 1499 1497 1495 1493 1491 1490 1488 1486 1484 1482 1480 1478 1477 1476 1474 1473 1472 1471 1470 1470 1469 1469 1469 1469 1469 1470 1470 1471 1472 1473
1533 1533 1533 1533 1533 1534 1534 1534 1533 1533 1532 1531 1531 1529 1528 1527 1526 1524 1523 1522 1521 1519 1518 1516 1514 1513 1512 1510 1509 1507 1506 1504 1502 1500 1498 1496 1494 1493 1491 1489 1487 1486 1484 1482 1480 1478 1476 1475 1474 1473 1471 1470 1470 1469 1469 1468 1468 1468 1469 1470 1470 1471 1471
1533 1533 1534 1534 1534 1535 1534 1534 1534 1533 1533 1532 1531 1530 1529 1528 1526 1525 1524 1523 1521 1520 1519 1517 1515 1514 1513 1511 1510 1509 1507 1505 1503 1502 1500 1498 1496 1494 1493 1491 1489 1488 1486 1484 1482 1480 1478 1476 1474 1473 1472 1471 1470 1469 1469 1468 1468 1468 1469 1469 1470 1469 1470
1534 1534 1534 1535 1535 1535 1535 1535 1534 1534 1533 1532 1532 1531 1530 1529 1527 1526 1525 1523 1522 1521 1519 1518 1517 1516 1515 1513 1512 1510 1508 1507 1505 1503 1501 1499 1497 1496 1494 1493 1491 1490 1488 1486 1484 1481 1480 1478 1476 1474 1473 1471 1470 1469 1469 1468 1468 1468 1469 1469 1469 1469 1469
1534 1535 1535 1536 1536 1536 1536 1535 1535 1534 1534 1533 1533 1532 1531 1530 1528 1527 1526 1525 1523 1522 1520 1520 1519 1518 1516 1515 1513 1512 1510 1508 1506 1504 1503 1501 1500 1498 1496 1495 1493 1491 1488 1487 1485 1483 1481 1480 1478 1477 1475 1473 1471 1470 1469 1468 1468 1468 1468 1469 1469 1469 1469
1535 1536 1536 1536 1536 1536 1536 1536 1536 1535 1535 1534 1534 1533 1532 1531 1530 1529 1527 1526 1524 1523 1522 1522 1521 1520 1518 1517 1515 1513 1511 1510 1508 1506 1504 1503 1502 1500 1498 1497 1495 1492 1490 1489 1487 1486 1484 1482 1481 1479 1477 1475 1473 1472 1471 1470 1469 1469 1469 1469 1469 1469 1469
1536 1536 1537 1537 1537 1537 1537 1537 1537 1536 1536 1535 1535 1534 1533 1532 1531 1530 1528 1527 1526 1525 1524 1523 1523 1521 1520 1519 1517 1515 1513 1511 1509 1507 1506 1504 1503 1501 1500 1498 1496 1494 1492 1491 1489 1488 1487 1485 1483 1482 1480 1478 1476 1475 1473 1472 1472 1471 1470 1470 1470 1470 1469
1537 1537 1537 1538 1538 1538 1538 1538 1538 1537 1537 1537 1536 1535 1534 1533 1532 1531 1530 1529 1527 1526 1525 1525 1524 1523 1522 1520 1518 1517 1515 1513 1511 1509 1508 1506 1505 1503 1501 1499 1497 1496 1494 1492 1490 1489 1488 1487 1485 1484 1482 1480 1478 1477 1476 1474 1474 1473 1472 1471 1471 1470 1470
1538 1538 1538 1539 1539 1539 1539 1539 1539 1539 1538 1538 1537 1536 1535 1534 1533 1532 1531 1530 1529 1528 1527 1527 1526 1525 1523 1522 1520 1518 1516 1515 1513 1511 1509 1508 1506 1505 1503 1502 1500 1498 1496 1494 1493 1491 1490 1489 1488 1486 1484 1482 1480 1479 1477 1476 1475 1474 1474 1473 1472 1471 1471
1539 1539 1539 1540 1540 1540 1540 1540 1540 1540 1540 1539 1538 1537 1536 1535 1535 1534 1533 1532 1531 1530 1529 1529 1528 1527 1525 1524 1522 1520 1518 1516 1514 1513 1511 1509 1508 1507 1505 1504 1502 1501 1499 1497 1496 1494 1492 1491 1489 1488 1486 1484 1483 1481 1480 1479 1478 1477 1477 1476 1475 1474 1473
1540 1540 1540 1540 1541 1541 1541 1541 1541 1541 1541 1540 1540 1539 1538 1537 1536 1535 1535 1534 1533 1532 1531 1531 1530 1528 1527 1525 1523 1521 1520 1518 1516 1514 1513 1511 1510 1508 1507 1505 1504 1503 1501 1499 1498 1497 1495 1493 1491 1490 1488 1487 1485 1484 1483 1482 1482 1480 1480 1479 1478 1476 1476
1541 1541 1541 1542 1542 1542 1542 1542 1542 1543 1543 1542 1541 1540 1539 1539 1538 1537 1536 1535 1534 1534 1533 1532 1532 1530 1529 1527 1525 1523 1522 1520 1518 1516 1515 1514 1512 1511 1509 1508 1506 1504 1503 1501 1500 1498 1496 1495 1493 1491 1490 1488 1487 1485 1485 1485 1484 1483 1482 1481 1479 1477 1476
1542 1542 1542 1543 1543 1543 1543 1543 1544 1544 1544 1543 1542 1542 1541 1540 1539 1538 1538 1537 1536 1535 1534 1534 1533 1532 1530 1529 1527 1526 1524 1522 1520 1519 1518 1516 1515 1513 1512 1510 1509 1507 1506 1504 1502 1500 1498 1496 1494 1493 1492 1490 1488 1487 1487 1487 1486 1484 1483 1481 1479 1478 1476
1543 1543 1544 1544 1544 1545 1545 1545 1545 1546 1545 1545 1544 1543 1543 1542 1541 1540 1539 1539 1538 1537 1536 1535 1534 1533 1532 1530 1529 1527 1525 1523 1522 1521 1520 1518 1517 1515 1514 1513 1511 1510 1509 1507 1505 1503 1500 1498 1497 1495 1494 1492 1491 1491 1491 1490 1488 1486 1484 1483 1481 1480 1478
1544 1545 1545 1546 1546 1546 1546 1546 1547 1547 1547 1546 1546 1545 1544 1543 1542 1542 1541 1541 1540 1539 1538 1537 1536 1535 1533 1532 1530 1529 1527 1525 1525 1524 1522 1520 1519 1517 1516 1515 1514 1513 1512 1510 1508 1505 1503 1502 1500 1498 1496 1495 1495 1495 1494 1492 1490 1488 1487 1485 1483 1482 1480
1545 1546 1546 1547 1547 1547 1547 1548 1548 1548 1548 1547 1547 1546 1545 1545 1544 1543 1543 1542 1541 1540 1540 1539 1538 1536 1535 1534 1532 1531 1529 1528 1527 1526 1524 1522 1521 1520 1519 1518 1517 1516 1515 1512 1510 1508 1507 1505 1503 1501 1500 1499 1498 1497 1495 1493 1492 1490 1488 1486 1485 1483 1481
1546 1547 1548 1548 1549 1548 1549 1550 1550 1550 1549 1549 1548 1547 1547 1546 1546 1545 1544 1544 1543 1542 1542 1541 1540 1538 1537 1536 1534 1533 1532 1530 1529 1528 1526 1524 1523 1522 1522 1521 1520 1519 1517 1515 1513 1511 1509 1507 1505 1504 1503 1502 1500 1499 1497 1495 1493 1491 1490 1488 1486 1484 1483
1548 1548 1549 1549 1550 1550 1550 1551 1551 1551 1550 1550 1549 1548 1548 1548 1547 1546 1546 1545 1544 1544 1543 1542 1542 1540 1539 1538 1537 1535 1534 1533 1531 1530 1528 1527 1526 1525 1524 1523 1522 1521 1519 1517 1515 1513 1511 1509 1508 1507 1506 1504 1502 1500 1498 1496 1495 1493 1491 1490 1488 1487 1486